Back to catalog

ATLAS D R/B

AliveLEO
NORAD 1616·ROCKET BODY·🇺🇸 United States

Launched Oct 5, 1965 from Vandenberg Space Force Base

Loading…

Next Passes (next 24 hours)

TLE

FreshSource: Space-Track

Epoch: Sep 14, 2026, 13:43 UTC

1 01616U 65078B   26257.57206019  .00005045  00000-0  40590-3 0  9997
2 01616 144.2320 323.4586 0962565  32.1183 333.4746 13.38658461762699

Track ATLAS D R/B in real time with AllMySat

Download on the App Store